Voltar ao catálogo

STARLINK-6171

AtivoComunicaçõesVLEO
NORAD 56883·PAYLOAD·🇺🇸 United States

Lançado Jun 12, 2023 de Cape Canaveral Space Force Station

Loading…

Próximas Passagens (próximas 24 horas)

TLE

AtualizadoSource: CelesTrak SupGP

Época: Sep 15, 2026, 02:31 UTC

1 56883C 23083H   26258.10534722  .00010748  00000+0  38922-3 0  2587
2 56883  43.0016  95.2662 0001437 275.3884   6.1719 15.27580804    13

Acompanhe STARLINK-6171 em tempo real com AllMySat

Download on the App Store